FW9327 Weather Reports


Display with metric or nautical units.
time (UTC)temp
F
wind
direction
speed
MPH
gust
MPH
rain 1hr
in
rain 24hr
in
rain mn
in
humidity
%
barometer
mb
20260504231555 66 360 1.0 3.0 0.00 0.00 0.00 69 997.3
20260504230104 67 0 0.0 2.0 0.00 0.00 0.00 70 996.9
20260504224550 68 0 1.0 4.0 0.00 0.00 0.00 69 997.2
20260504223101 70 360 2.0 16.0 0.00 0.00 0.00 66 998.0
20260504221603 74 360 2.0 13.0 0.00 0.00 0.00 50 998.2
20260504220100 77 9 3.0 13.0 0.00 0.00 0.00 39 997.7
20260504214553 79 5 3.0 10.0 0.00 0.00 0.00 40 997.5
20260504213051 79 5 4.0 14.0 0.00 0.00 0.00 38 997.7
20260504211550 77 5 3.0 10.0 0.00 0.00 0.00 40 998.0
20260504210052 78 5 3.0 16.0 0.00 0.00 0.00 40 998.0
20260504204601 80 5 4.0 16.0 0.00 0.00 0.00 37 998.1
20260504203100 79 9 5.0 16.0 0.00 0.00 0.00 38 998.3
20260504201556 81 5 4.0 12.0 0.00 0.00 0.00 37 998.4
20260504200052 79 9 3.0 13.0 0.00 0.00 0.00 41 998.5
20260504194549 79 5 4.0 14.0 0.00 0.00 0.00 39 998.8
20260504193048 80 5 6.0 14.0 0.00 0.00 0.00 36 999.2
20260504191605 79 9 4.0 18.0 0.00 0.00 0.00 37 999.2
20260504190049 79 9 4.0 16.0 0.00 0.00 0.00 34 999.2
20260504184549 79 5 4.0 13.0 0.00 0.00 0.00 35 999.2
20260504183052 79 5 3.0 12.0 0.00 0.00 0.00 38 999.4
20260504181557 78 5 3.0 12.0 0.00 0.00 0.00 41 999.6
20260504180127 78 5 4.0 15.0 0.00 0.00 0.00 36 999.7
20260504174555 78 5 4.0 12.0 0.00 0.03 0.00 38 999.9
20260504173051 77 5 4.0 13.0 0.00 0.03 0.00 39 1000.2
20260504171553 76 9 4.0 12.0 0.00 0.03 0.00 42 1000.4
20260504081556 45 0 0.0 0.0 0.00 0.11 0.00 86 1003.6
20260504044557 55 360 1.0 4.0 0.00 0.11 0.11 71 1005.2
20260504043054 56 360 1.0 5.0 0.00 0.11 0.11 70 1005.2
20260504041549 56 360 1.0 5.0 0.00 0.11 0.11 70 1005.1
20260504040054 55 360 0.0 4.0 0.00 0.11 0.11 70 1005.1
20260504034554 55 0 0.0 3.0 0.00 0.11 0.11 70 1005.3
20260504033058 55 0 0.0 4.0 0.00 0.11 0.11 69 1005.6
20260504031552 55 360 1.0 6.0 0.00 0.11 0.11 69 1005.8
20260504030054 56 0 0.0 2.0 0.00 0.11 0.11 66 1005.8
20260504024614 57 0 0.0 1.0 0.00 0.11 0.11 64 1005.7
20260504023052 58 5 0.0 2.0 0.00 0.11 0.11 63 1005.8
20260504021550 59 0 0.0 4.0 0.00 0.11 0.11 61 1005.6
20260504020047 59 5 1.0 3.0 0.00 0.11 0.11 60 1005.5
20260504014558 60 5 0.0 3.0 0.00 0.11 0.11 59 1005.3
20260504013054 61 5 2.0 5.0 0.00 0.11 0.11 57 1005.1
20260504011552 61 5 1.0 4.0 0.00 0.11 0.11 56 1005.2
20260504010100 62 5 2.0 6.0 0.00 0.11 0.11 55 1005.1
20260504004550 63 5 1.0 5.0 0.00 0.11 0.11 53 1005.0
20260504003055 64 5 2.0 11.0 0.00 0.11 0.11 52 1005.2
20260504001550 64 5 2.0 11.0 0.00 0.11 0.11 50 1005.3
20260504000137 65 5 2.0 9.0 0.00 0.11 0.11 50 1005.1
20260503234559 66 360 3.0 15.0 0.00 0.11 0.11 48 1005.1
20260503233051 66 5 2.0 12.0 0.00 0.11 0.11 47 1005.1